DW6860 Weather Reports


Display with metric or nautical units.
time (UTC)temp
F
wind
direction
speed
MPH
gust
MPH
rain 1hr
in
rain 24hr
in
rain mn
in
humidity
%
barometer
mb
20260901091916 64 329 2.0 10.0 0.00 0.57 0.57 93 1019.3
20260901091416 64 263 3.0 10.0 0.00 0.57 0.57 93 1019.4
20260901090921 64 259 2.0 5.0 0.00 0.57 0.57 94 1019.4
20260901090415 64 284 2.0 6.0 0.00 0.57 0.57 95 1019.4
20260901085918 64 315 2.0 6.0 0.00 0.57 0.57 95 1019.3
20260901085410 63 269 2.0 8.0 0.00 0.57 0.57 95 1019.3
20260901084910 63 234 2.0 8.0 0.00 0.57 0.57 95 1019.2
20260901084741 63 254 2.0 4.0 0.00 0.57 0.57 95 1019.2
20260901083912 63 179 2.0 5.0 0.00 0.57 0.57 95 1019.3
20260901083406 63 210 2.0 5.0 0.00 0.57 0.57 95 1019.2
20260901082909 63 234 2.0 5.0 0.00 0.57 0.57 95 1019.2
20260901082407 63 234 2.0 5.0 0.00 0.57 0.57 95 1019.1
20260901081907 62 232 3.0 6.0 0.00 0.57 0.57 95 1019.0
20260901081409 62 210 2.0 6.0 0.00 0.57 0.57 95 1018.9
20260901080910 62 206 2.0 6.0 0.00 0.57 0.57 95 1018.9
20260901080414 62 266 3.0 6.0 0.00 0.57 0.57 95 1019.0
20260901075852 62 207 3.0 7.0 0.00 0.57 0.57 95 1018.8
20260901075348 62 224 3.0 7.0 0.00 0.57 0.57 95 1018.9
20260901074848 62 176 3.0 7.0 0.00 0.57 0.57 95 1018.7
20260901074348 62 232 2.0 7.0 0.00 0.57 0.57 95 1018.7
20260901074137 62 243 2.0 6.0 0.00 0.57 0.57 95 1018.6
20260901074024 62 200 2.0 7.0 0.00 0.57 0.57 95 1018.7
20260901072842 62 238 2.0 6.0 0.00 0.57 0.57 95 1018.5
20260901072344 62 196 2.0 6.0 0.00 0.57 0.57 95 1018.3
20260901072237 62 186 2.0 5.0 0.00 0.57 0.57 95 1018.3
20260901071343 62 186 2.0 5.0 0.00 0.57 0.57 95 1018.3
20260901070841 62 244 2.0 4.0 0.00 0.57 0.57 94 1018.3
20260901070340 62 237 2.0 5.0 0.00 0.57 0.57 95 1018.3
20260901065840 62 231 2.0 5.0 0.00 0.57 0.57 95 1018.3
20260901065342 62 195 2.0 4.0 0.00 0.57 0.57 95 1018.1
20260901064838 61 225 3.0 6.0 0.00 0.57 0.57 94 1018.2
20260901064336 61 217 2.0 6.0 0.00 0.57 0.57 94 1018.2
20260901064212 61 192 2.0 5.0 0.00 0.57 0.57 94 1018.0
20260901063333 61 173 1.0 3.0 0.00 0.57 0.57 94 1018.0
20260901062831 61 208 1.0 3.0 0.01 0.57 0.57 94 1017.9
20260901062332 61 208 1.0 3.0 0.02 0.57 0.57 94 1017.8
20260901061831 61 208 0.0 3.0 0.06 0.57 0.57 94 1017.7
20260901061329 61 208 1.0 2.0 0.10 0.57 0.57 94 1017.7
20260901060828 61 208 1.0 2.0 0.12 0.57 0.57 94 1017.7
20260901060322 61 208 1.0 3.0 0.15 0.57 0.57 94 1017.7
20260901055819 61 208 1.0 3.0 0.15 0.57 0.57 94 1017.7
20260901055319 61 208 1.0 3.0 0.15 0.57 0.57 94 1017.6
20260901054819 61 208 1.0 3.0 0.15 0.57 0.57 94 1017.6
20260901054317 61 208 2.0 4.0 0.15 0.57 0.57 94 1017.5
20260901053813 61 198 1.0 3.0 0.16 0.57 0.57 94 1017.6
20260901053312 61 229 1.0 3.0 0.16 0.57 0.57 94 1017.5
20260901052809 61 199 1.0 4.0 0.15 0.57 0.57 94 1017.4
20260901052524 61 208 1.0 3.0 0.09 0.51 0.50 94 1017.5
20260901052430 61 210 1.0 4.0 0.13 0.55 0.55 94 1017.5
20260901051309 60 236 1.0 3.0 0.06 0.47 0.47 94 1017.5
20260901051138 60 224 0.0 3.0 0.04 0.46 0.45 94 1017.5
20260901050321 60 169 0.0 2.0 0.01 0.43 0.43 93 1017.5
20260901045812 60 169 1.0 2.0 0.01 0.43 0.43 93 1017.3
20260901045312 60 169 1.0 2.0 0.01 0.43 0.43 93 1017.4
20260901044810 60 169 0.0 2.0 0.02 0.43 0.43 93 1017.3
20260901044310 60 169 0.0 2.0 0.03 0.43 0.43 93 1017.2
20260901044139 60 169 1.0 4.0 0.06 0.42 0.42 93 1017.1
20260901043311 60 169 1.0 4.0 0.13 0.42 0.42 93 1017.1
20260901043000 61 196 1.0 3.0 0.28 0.42 0.42 93 1017.0
20260901042956 60 236 1.0 3.0 0.29 0.42 0.42 93 1016.9
20260901042949 60 236 2.0 4.0 0.29 0.42 0.42 93 1017.1
20260901042917 60 169 1.0 4.0 0.17 0.42 0.42 93 1017.3
20260901042734 60 169 1.0 4.0 0.25 0.42 0.42 93 1017.2
20260901042546 60 169 1.0 4.0 0.27 0.42 0.42 93 1017.1
20260901042012 60 236 1.0 3.0 0.28 0.42 0.42 93 1016.9
20260901041331 60 236 1.0 3.0 0.29 0.42 0.42 93 1016.9
20260901035305 60 218 2.0 4.0 0.29 0.42 0.42 93 1017.0
20260901034807 60 197 2.0 4.0 0.28 0.41 0.41 93 1017.0
20260901034258 60 204 2.0 4.0 0.27 0.39 0.39 93 1017.0
20260901033800 60 211 2.0 5.0 0.23 0.35 0.35 93 1017.0
20260901033638 60 254 2.0 5.0 0.16 0.28 0.28 93 1017.1
20260901032758 60 201 2.0 4.0 0.12 0.24 0.23 93 1017.0
20260901032257 60 214 2.0 4.0 0.04 0.17 0.16 92 1017.0
20260901032132 60 202 2.0 4.0 0.02 0.15 0.15 92 1016.9
20260901031250 60 202 2.0 4.0 0.02 0.14 0.14 92 1016.9
20260901030740 60 202 2.0 4.0 0.01 0.13 0.13 92 1016.9
20260901030619 60 144 2.0 5.0 0.00 0.13 0.13 92 1016.7
20260901025735 60 227 2.0 5.0 0.00 0.13 0.13 92 1016.7
20260901025234 60 220 2.0 5.0 0.00 0.13 0.13 92 1016.8
20260901024737 60 192 1.0 5.0 0.00 0.13 0.13 92 1016.8
20260901024231 60 155 2.0 5.0 0.00 0.13 0.13 92 1016.7
20260901023731 60 155 2.0 5.0 0.00 0.13 0.13 92 1016.8
20260901023232 60 234 2.0 7.0 0.00 0.13 0.13 92 1016.8
20260901022730 60 211 3.0 7.0 0.00 0.13 0.13 91 1016.7
20260901022231 60 211 2.0 5.0 0.00 0.13 0.13 91 1016.8
20260901022050 61 222 2.0 5.0 0.00 0.13 0.13 91 1016.8
20260901021231 61 215 3.0 5.0 0.00 0.13 0.13 91 1016.8
20260901020729 61 176 2.0 5.0 0.00 0.13 0.13 91 1016.9
20260901020232 61 194 2.0 5.0 0.00 0.13 0.13 91 1016.9
20260901015720 61 214 2.0 4.0 0.00 0.13 0.13 91 1016.8
20260901015217 61 227 2.0 4.0 0.00 0.13 0.13 91 1016.8
20260901014711 61 221 2.0 6.0 0.00 0.13 0.13 91 1016.8
20260901014211 61 202 2.0 6.0 0.00 0.13 0.13 91 1016.6
20260901013712 61 178 2.0 4.0 0.00 0.13 0.13 90 1016.7
20260901013211 61 204 1.0 4.0 0.00 0.13 0.13 90 1016.6
20260901013027 61 204 1.0 3.0 0.00 0.13 0.13 90 1016.7
20260901012205 62 204 1.0 3.0 0.00 0.13 0.13 90 1016.7
20260901011705 62 204 1.0 3.0 0.00 0.13 0.13 90 1016.7
20260901011535 62 204 1.0 4.0 0.00 0.13 0.13 90 1016.6
20260901010705 62 204 1.0 4.0 0.00 0.13 0.13 90 1016.6
20260901010209 62 238 1.0 4.0 0.01 0.13 0.13 90 1016.7
20260901010050 62 177 2.0 4.0 0.02 0.13 0.13 90 1016.6
20260901005207 62 177 2.0 3.0 0.06 0.13 0.13 90 1016.7
20260901004706 62 177 2.0 4.0 0.12 0.13 0.13 89 1016.7
20260901004208 62 177 2.0 4.0 0.13 0.13 0.13 89 1016.7
20260901003706 62 207 2.0 4.0 0.13 0.13 0.13 89 1016.8
20260901003210 62 213 2.0 5.0 0.13 0.13 0.13 89 1016.7
20260901002710 63 215 2.0 5.0 0.13 0.13 0.13 89 1016.7
20260901002206 63 197 2.0 4.0 0.13 0.13 0.13 88 1016.7
20260901002032 63 204 2.0 5.0 0.13 0.13 0.13 88 1016.7
20260901001540 63 188 2.0 7.0 0.13 0.13 0.13 88 1016.6
20260901000708 63 184 3.0 7.0 0.13 0.13 0.12 88 1016.6
20260901000211 63 204 3.0 7.0 0.12 0.12 0.12 88 1016.7
20260831235711 63 243 2.0 7.0 0.11 0.11 0.10 88 1016.7
20260831235204 64 216 1.0 4.0 0.07 0.07 0.06 87 1016.6
20260831234710 63 260 1.0 6.0 0.01 0.01 0.01 87 1016.8
20260831234211 63 355 2.0 6.0 0.00 0.00 0.00 87 1016.6
20260831233708 63 326 2.0 9.0 0.00 0.00 0.00 87 1016.6
20260831233210 63 260 2.0 9.0 0.00 0.00 0.00 86 1016.7
20260831232710 63 219 2.0 7.0 0.00 0.00 0.00 86 1016.8
20260831232210 63 336 2.0 5.0 0.00 0.00 0.00 86 1016.7
20260831231715 63 223 2.0 5.0 0.00 0.00 0.00 85 1016.3
20260831231208 63 227 2.0 5.0 0.00 0.00 0.00 85 1016.3
20260831231118 63 181 3.0 6.0 0.00 0.00 0.00 85 1016.2
20260831231112 63 198 2.0 5.0 0.00 0.00 0.00 85 1016.3
20260831230324 63 225 2.0 6.0 0.00 0.00 0.00 85 1016.3
20260831225213 63 196 3.0 6.0 0.00 0.00 0.00 84 1016.3
20260831224707 63 207 3.0 6.0 0.00 0.00 0.00 84 1016.2
20260831224204 63 190 2.0 5.0 0.00 0.00 0.00 84 1016.2
20260831223706 63 188 2.0 5.0 0.00 0.00 0.00 84 1016.2
20260831223206 64 227 2.0 5.0 0.00 0.00 0.00 83 1016.1
20260831222710 64 201 2.0 5.0 0.00 0.00 0.00 84 1016.2
20260831222543 64 209 3.0 10.0 0.00 0.00 0.00 83 1016.0
20260831221858 64 205 3.0 8.0 0.00 0.00 0.00 83 1016.0
20260831221817 64 215 3.0 10.0 0.00 0.00 0.00 83 1016.0
20260831220845 64 209 3.0 8.0 0.00 0.00 0.00 82 1016.0
20260831220757 64 222 3.0 8.0 0.00 0.00 0.00 83 1016.1
20260831215956 64 224 3.0 8.0 0.00 0.00 0.00 82 1016.0
20260831215139 64 198 3.0 7.0 0.00 0.00 0.00 81 1016.0
20260831214639 64 213 3.0 6.0 0.00 0.00 0.00 81 1015.9
20260831214137 64 190 3.0 7.0 0.00 0.00 0.00 81 1016.0
20260831213640 64 221 3.0 7.0 0.00 0.00 0.00 80 1015.9
20260831213140 64 241 3.0 6.0 0.00 0.00 0.00 80 1015.9
20260831212635 64 207 3.0 6.0 0.00 0.00 0.00 79 1015.9
20260831212135 65 202 3.0 7.0 0.00 0.00 0.00 79 1015.7
20260831211640 65 223 3.0 7.0 0.00 0.00 0.00 79 1015.7
20260831211136 65 234 2.0 6.0 0.00 0.00 0.00 79 1015.6
20260831210639 65 232 2.0 6.0 0.00 0.00 0.00 78 1015.6
20260831210136 65 200 3.0 6.0 0.00 0.00 0.00 78 1015.5
20260831205635 65 205 3.0 8.0 0.00 0.00 0.00 78 1015.5
20260831205135 65 240 2.0 8.0 0.00 0.00 0.00 78 1015.5
20260831204953 65 192 2.0 5.0 0.00 0.00 0.00 78 1015.4
20260831204135 65 197 2.0 5.0 0.00 0.00 0.00 77 1015.4
20260831203632 66 240 2.0 5.0 0.00 0.00 0.00 77 1015.4
20260831203133 66 215 3.0 5.0 0.00 0.00 0.00 77 1015.4
20260831202635 66 215 3.0 7.0 0.00 0.00 0.00 77 1015.4
20260831202131 66 198 4.0 8.0 0.00 0.00 0.00 77 1015.4
20260831201634 66 208 3.0 8.0 0.00 0.00 0.00 77 1015.3
20260831201134 66 240 3.0 8.0 0.00 0.00 0.00 76 1015.3
20260831200629 66 224 2.0 8.0 0.00 0.00 0.00 76 1015.2
20260831200130 66 205 2.0 5.0 0.00 0.00 0.00 75 1015.2
20260831195632 66 237 2.0 6.0 0.00 0.00 0.00 75 1015.1
20260831195125 66 247 2.0 6.0 0.00 0.00 0.00 74 1015.0
20260831194619 66 194 2.0 5.0 0.00 0.00 0.00 73 1015.0
20260831194118 66 208 2.0 5.0 0.00 0.00 0.00 73 1014.9
20260831193618 66 200 2.0 5.0 0.00 0.00 0.00 72 1014.9
20260831193446 66 211 2.0 5.0 0.00 0.00 0.00 72 1014.9
20260831192939 67 238 2.0 6.0 0.00 0.00 0.00 71 1014.8
20260831192450 67 239 2.0 6.0 0.00 0.00 0.00 71 1014.9
20260831191619 67 236 2.0 5.0 0.00 0.00 0.00 71 1014.9
20260831191106 67 225 2.0 5.0 0.00 0.00 0.00 70 1014.7
20260831190605 67 211 1.0 3.0 0.00 0.00 0.00 70 1014.7
20260831190101 67 232 1.0 4.0 0.00 0.00 0.00 70 1014.7
20260831185926 67 241 2.0 4.0 0.00 0.00 0.00 69 1014.7
20260831185058 67 244 2.0 5.0 0.00 0.00 0.00 69 1014.6
20260831184553 67 260 2.0 6.0 0.00 0.00 0.00 69 1014.6
20260831184058 67 223 2.0 9.0 0.00 0.00 0.00 69 1014.4
20260831183547 67 226 2.0 9.0 0.00 0.00 0.00 68 1014.2
20260831183050 67 270 2.0 7.0 0.00 0.00 0.00 68 1014.2
20260831182544 68 201 2.0 6.0 0.00 0.00 0.00 68 1014.1
20260831182041 68 274 2.0 6.0 0.00 0.00 0.00 68 1014.0
20260831181539 68 242 2.0 7.0 0.00 0.00 0.00 67 1013.9
20260831181039 68 288 3.0 10.0 0.00 0.00 0.00 67 1014.0
20260831180542 68 147 3.0 10.0 0.00 0.00 0.00 67 1013.8
20260831180046 68 279 3.0 10.0 0.00 0.00 0.00 67 1013.7
20260831175858 68 239 3.0 10.0 0.00 0.00 0.00 67 1013.7
20260831175036 68 145 4.0 10.0 0.00 0.00 0.00 67 1013.7
20260831174535 68 211 4.0 14.0 0.00 0.00 0.00 67 1013.7
20260831174034 69 162 4.0 14.0 0.00 0.00 0.00 66 1013.5
20260831173535 69 196 4.0 11.0 0.00 0.00 0.00 67 1013.5
20260831173040 69 9 4.0 12.0 0.00 0.00 0.00 66 1013.4
20260831172536 69 332 5.0 13.0 0.00 0.00 0.00 66 1013.3
20260831172036 69 158 5.0 13.0 0.00 0.00 0.00 64 1013.2
20260831171533 69 5 4.0 13.0 0.00 0.00 0.00 64 1013.2
20260831171030 70 325 3.0 10.0 0.00 0.00 0.00 64 1013.1
20260831170531 70 227 3.0 12.0 0.00 0.00 0.00 64 1013.1
20260831170414 70 346 4.0 12.0 0.00 0.00 0.00 64 1013.0
20260831165532 70 153 4.0 12.0 0.00 0.00 0.00 64 1012.9
20260831165358 70 212 5.0 17.0 0.00 0.00 0.00 63 1012.9
20260831164530 70 355 5.0 17.0 0.00 0.00 0.00 63 1012.9
20260831164031 71 336 3.0 11.0 0.00 0.00 0.00 63 1012.8
20260831163534 71 273 4.0 13.0 0.00 0.00 0.00 62 1012.7
20260831163034 71 338 5.0 13.0 0.00 0.00 0.00 62 1012.8
20260831162532 71 237 4.0 13.0 0.00 0.00 0.00 63 1012.8
20260831162030 71 298 5.0 18.0 0.00 0.00 0.00 63 1012.6
20260831161535 71 16 5.0 18.0 0.00 0.00 0.00 62 1012.7
20260831161033 71 271 4.0 14.0 0.00 0.00 0.00 63 1012.6
20260831160529 71 259 5.0 13.0 0.00 0.00 0.00 63 1012.5
20260831160036 70 287 6.0 17.0 0.00 0.00 0.00 63 1012.6
20260831155526 70 249 7.0 17.0 0.00 0.00 0.00 63 1012.4
20260831155026 71 273 7.0 17.0 0.00 0.00 0.00 62 1012.3
20260831154527 71 215 6.0 15.0 0.00 0.00 0.00 61 1012.2
20260831154026 71 325 7.0 15.0 0.00 0.00 0.00 60 1012.2
20260831153525 71 285 7.0 18.0 0.00 0.00 0.00 60 1012.1
20260831153026 71 327 7.0 19.0 0.00 0.00 0.00 63 1012.0
20260831152524 71 9 5.0 19.0 0.00 0.00 0.00 63 1011.9
20260831152026 70 188 5.0 16.0 0.00 0.00 0.00 65 1012.0
20260831151521 69 194 6.0 17.0 0.00 0.00 0.00 66 1011.9
20260831151021 70 331 5.0 17.0 0.00 0.00 0.00 65 1011.8
20260831150524 70 202 4.0 12.0 0.00 0.00 0.00 65 1011.7
20260831150035 70 319 5.0 14.0 0.00 0.00 0.00 66 1011.7
20260831145527 69 333 6.0 15.0 0.00 0.00 0.00 66 1011.7
20260831145025 70 239 6.0 15.0 0.00 0.00 0.00 65 1011.8
20260831144524 70 261 7.0 19.0 0.00 0.00 0.00 64 1011.5
20260831144355 71 155 7.0 19.0 0.00 0.00 0.00 63 1011.5
20260831143523 71 14 8.0 19.0 0.00 0.00 0.00 62 1011.5
20260831143020 71 190 6.0 19.0 0.00 0.00 0.00 61 1011.3
20260831142519 71 164 5.0 16.0 0.00 0.00 0.00 63 1011.3
20260831142022 70 347 4.0 13.0 0.00 0.00 0.00 64 1011.2
20260831141516 69 323 4.0 12.0 0.00 0.00 0.00 68 1011.2
20260831141021 69 294 5.0 17.0 0.00 0.00 0.00 66 1011.1
20260831140527 70 317 5.0 17.0 0.00 0.00 0.00 64 1011.0
20260831140032 71 310 5.0 12.0 0.00 0.00 0.00 61 1010.9
20260831135520 72 300 5.0 13.0 0.00 0.00 0.00 59 1010.8
20260831135020 72 220 7.0 16.0 0.00 0.00 0.00 59 1010.7
20260831134514 71 149 7.0 16.0 0.00 0.00 0.00 59 1010.5
20260831134020 70 253 6.0 18.0 0.00 0.00 0.00 61 1010.6
20260831133515 70 9 6.0 18.0 0.00 0.00 0.00 60 1010.5
20260831133031 71 221 6.0 14.0 0.00 0.00 0.00 59 1010.5
20260831132527 71 333 6.0 17.0 0.00 0.00 0.00 61 1010.4
20260831132023 72 355 6.0 17.0 0.00 0.00 0.00 61 1010.4
20260831131518 71 284 6.0 16.0 0.00 0.00 0.00 61 1010.3
20260831131428 71 209 7.0 16.0 0.00 0.00 0.00 64 1010.3
20260831130517 71 160 7.0 16.0 0.00 0.00 0.00 64 1010.3
20260831130030 71 267 7.0 16.0 0.00 0.00 0.00 66 1010.3
20260831125520 71 331 7.0 20.0 0.00 0.00 0.00 69 1010.2
20260831125424 71 219 6.0 20.0 0.00 0.00 0.00 68 1010.1
20260831124508 71 210 7.0 17.0 0.00 0.00 0.00 70 1010.0
20260831124006 70 217 8.0 17.0 0.00 0.00 0.00 70 1010.1
20260831123508 69 197 8.0 17.0 0.00 0.00 0.00 72 1010.0
20260831123009 69 252 7.0 17.0 0.00 0.00 0.00 72 1010.0
20260831122507 69 203 7.0 17.0 0.00 0.00 0.00 73 1010.0
20260831122007 68 256 7.0 16.0 0.00 0.00 0.00 74 1009.9
20260831121503 68 265 8.0 17.0 0.00 0.00 0.00 74 1009.9
20260831121012 67 202 9.0 20.0 0.00 0.00 0.00 75 1009.8
20260831120510 67 225 8.0 20.0 0.00 0.00 0.00 73 1009.8
20260831120010 67 199 8.0 17.0 0.00 0.00 0.00 72 1009.6
20260831115510 68 264 8.0 21.0 0.00 0.00 0.00 71 1009.3
20260831115005 69 218 8.0 21.0 0.00 0.00 0.00 70 1009.1
20260831114508 69 172 7.0 17.0 0.00 0.00 0.00 70 1009.1
20260831114004 68 232 7.0 17.0 0.00 0.00 0.00 73 1009.2
20260831113501 67 192 8.0 15.0 0.00 0.00 0.00 74 1009.0
20260831113003 68 204 8.0 23.0 0.00 0.00 0.00 70 1009.2
20260831112500 68 188 7.0 23.0 0.00 0.00 0.00 68 1009.1
20260831112003 69 197 8.0 19.0 0.00 0.00 0.00 66 1009.0
20260831111459 69 225 10.0 21.0 0.00 0.00 0.00 65 1008.9
20260831110958 69 244 9.0 21.0 0.00 0.00 0.00 66 1009.1
20260831110854 69 170 9.0 20.0 0.00 0.00 0.00 66 1009.1
20260831110000 69 176 9.0 20.0 0.00 0.00 0.00 65 1009.0
20260831105503 69 205 8.0 17.0 0.00 0.00 0.00 68 1008.9
20260831105000 69 203 8.0 19.0 0.00 0.00 0.00 67 1009.1
20260831104918 69 248 8.0 19.0 0.00 0.00 0.00 67 1009.1
20260831103951 69 225 8.0 23.0 0.00 0.00 0.00 67 1009.2
20260831103450 69 189 9.0 23.0 0.00 0.00 0.00 67 1009.0
20260831103251 69 205 9.0 17.0 0.00 0.00 0.00 69 1009.0
20260831103124 68 165 8.0 19.0 0.00 0.00 0.00 70 1009.1
20260831102641 68 200 8.0 19.0 0.00 0.00 0.00 69 1009.0
20260831101534 68 206 9.0 18.0 0.00 0.00 0.00 73 1008.9
20260831101530 68 178 8.0 16.0 0.00 0.00 0.00 71 1008.9
20260831101458 69 221 10.0 25.0 0.00 0.00 0.00 69 1008.9
20260831101024 68 205 9.0 25.0 0.00 0.00 0.00 69 1008.9
20260831100236 67 185 8.0 17.0 0.00 0.00 0.00 75 1008.9
20260831100051 68 248 8.0 18.0 0.00 0.00 0.00 70 1009.1
20260831095555 68 151 9.0 18.0 0.00 0.00 0.00 72 1009.0
20260831093951 67 191 9.0 21.0 0.00 0.00 0.00 76 1008.8
20260831093449 66 220 10.0 21.0 0.00 0.00 0.00 77 1008.8
20260831092941 66 258 9.0 20.0 0.00 0.00 0.00 78 1008.7